Zurück zum Katalog

STARLINK-36550

AktivKommunikationVLEO
NORAD 67495·PAYLOAD·🇺🇸 United States

Gestartet Jan 18, 2026 von Cape Canaveral Space Force Station

Loading…

Nächste Überflüge (nächste 24 Stunden)

TLE

AktuellSource: CelesTrak SupGP

Epoche: Sep 15, 2026, 03:32 UTC

1 67495C 26012C   26258.14770833  .00045141  00000+0  16350-2 0  2587
2 67495  43.0011 324.7286 0001362 267.2472 100.7476 15.27556219    15

Verfolge STARLINK-36550 in Echtzeit mit AllMySat

Download on the App Store